Location: Bidwell Hollow
(37.7387°N, 90.1707°W)
Time: 09:51:20
(UTC+00:00)

Transit 2A - Pass Details

Date: 22 May 2026
Orbit: 596 x 948 km, 66.7° (Epoch: 10 June)

Event Time Altitude Azimuth Distance (km) Brightness Sun altitude
Rises 19:26:08 0° 201° (SSW) 3,594 9.8 64.2°
Reaches altitude 10° 19:28:43 10° 200° (SSW) 2,638 9.3 63.8°
Maximum altitude 19:34:54 75° 116° (ESE) 933 7.5 62.8°
Drops below altitude 10° 19:40:42 10° 32° (NNE) 2,485 8.5 61.8°
Sets 19:43:05 0° 30° (NNE) 3,374 9.1 61.4°
